FW1358 Weather Reports


Display with metric or nautical units.
time (UTC)temp
F
wind
direction
speed
MPH
gust
MPH
rain 1hr
in
rain 24hr
in
rain mn
in
humidity
%
barometer
mb
20260509232803 75 146 0.0 0.0 0.00 0.00 0.00 59 1011.6
20260509232306 75 146 0.0 0.0 0.00 0.00 0.00 60 1011.5
20260509231803 74 146 0.0 0.0 0.00 0.00 0.00 60 1011.5
20260509231303 74 146 0.0 0.0 0.00 0.00 0.00 59 1011.3
20260509230804 74 146 0.0 0.0 0.00 0.00 0.00 60 1011.3
20260509225803 74 146 0.0 0.0 0.00 0.00 0.00 62 1011.3
20260509224803 74 146 0.0 0.0 0.00 0.00 0.00 62 1011.4
20260509222803 76 146 0.0 0.0 0.00 0.00 0.00 59 1011.4
20260509221303 76 146 0.0 0.0 0.00 0.00 0.00 58 1011.3
20260509220803 76 146 0.0 0.0 0.00 0.00 0.00 58 1011.2
20260509220303 77 146 0.0 0.0 0.00 0.00 0.00 57 1011.4
20260509215804 77 146 0.0 0.0 0.00 0.00 0.00 57 1011.4
20260509214804 77 146 0.0 0.0 0.00 0.00 0.00 57 1011.3
20260509214304 78 146 0.0 0.0 0.00 0.00 0.00 57 1011.3
20260509212803 78 146 0.0 0.0 0.00 0.00 0.00 53 1011.2
20260509212306 78 146 0.0 0.0 0.00 0.00 0.00 54 1011.2
20260509211804 78 146 0.0 0.0 0.00 0.00 0.00 50 1011.2
20260509205306 78 146 0.0 0.0 0.00 0.00 0.00 57 1011.2
20260509204804 78 146 0.0 0.0 0.00 0.00 0.00 55 1011.2
20260509202306 77 146 0.0 0.0 0.00 0.00 0.00 56 1011.0
20260509201804 76 146 0.0 0.0 0.00 0.00 0.00 56 1011.2
20260509201304 76 146 0.0 0.0 0.00 0.00 0.00 56 1011.4
20260509200803 77 146 0.0 0.0 0.00 0.00 0.00 56 1011.3
20260509200304 77 146 0.0 0.0 0.00 0.00 0.00 55 1011.4
20260509195803 78 146 0.0 0.0 0.00 0.00 0.00 54 1011.5
20260509195306 78 146 0.0 0.0 0.00 0.00 0.00 55 1011.6
20260509194803 78 146 0.0 0.0 0.00 0.00 0.00 56 1011.7
20260509193803 77 146 0.0 0.0 0.00 0.00 0.00 57 1011.8
20260509193303 77 146 0.0 0.0 0.00 0.00 0.00 61 1011.9
20260509192803 77 146 0.0 0.0 0.00 0.00 0.00 56 1011.9
20260509191803 77 146 0.0 0.0 0.00 0.00 0.00 55 1011.9
20260509191303 78 146 0.0 1.0 0.00 0.00 0.00 56 1011.9
20260509185804 77 298 0.0 0.0 0.00 0.00 0.00 56 1012.0
20260509185306 77 298 0.0 0.0 0.00 0.00 0.00 57 1012.1
20260509184804 77 298 0.0 0.0 0.00 0.00 0.00 57 1012.1
20260509184303 77 298 0.0 0.0 0.00 0.00 0.00 56 1012.0
20260509182306 75 90 0.0 0.0 0.00 0.00 0.00 59 1011.8
20260509175803 76 350 0.0 1.0 0.00 0.00 0.00 57 1011.7
20260509174803 75 326 0.0 0.0 0.00 0.00 0.00 60 1011.6
20260509174303 75 326 0.0 0.0 0.00 0.00 0.00 62 1011.6
20260509173304 74 326 0.0 0.0 0.00 0.00 0.00 63 1011.6
20260509172803 73 326 0.0 0.0 0.00 0.00 0.00 63 1011.6
20260509172306 73 326 0.0 1.0 0.00 0.00 0.00 64 1011.7
20260509171804 72 326 0.0 1.0 0.00 0.00 0.00 65 1011.8
20260509170803 72 340 0.0 0.0 0.00 0.00 0.00 67 1012.0
20260509165803 73 340 0.0 0.0 0.00 0.00 0.00 64 1012.1
20260509164803 72 340 0.0 1.0 0.00 0.00 0.00 68 1012.1
20260509163303 71 314 0.0 0.0 0.00 0.00 0.00 67 1012.2
20260509162803 71 314 0.0 0.0 0.00 0.00 0.00 68 1012.2
20260509162307 70 314 0.0 0.0 0.00 0.00 0.00 68 1012.2
20260509161303 70 314 0.0 0.0 0.00 0.00 0.00 68 1012.1
20260509160804 70 314 0.0 0.0 0.00 0.00 0.00 69 1012.2
20260509155803 70 314 0.0 1.0 0.00 0.00 0.00 69 1012.2
20260509155306 69 347 0.0 1.0 0.00 0.00 0.00 71 1012.2
20260509154804 69 348 0.0 0.0 0.00 0.00 0.00 72 1012.2
20260509153803 69 348 0.0 0.0 0.00 0.00 0.00 70 1012.2
20260509152306 68 48 0.0 0.0 0.00 0.00 0.00 72 1011.9
20260509151803 67 48 0.0 1.0 0.00 0.00 0.00 74 1011.9
20260509145804 67 342 0.0 0.0 0.00 0.00 0.00 75 1011.6
20260509145306 66 342 0.0 0.0 0.00 0.00 0.00 75 1011.6
20260509144803 66 342 0.0 0.0 0.00 0.00 0.00 76 1011.5
20260509143803 66 342 0.0 1.0 0.00 0.00 0.00 75 1011.4
20260509143303 66 342 0.0 1.0 0.00 0.00 0.00 75 1011.4
20260509142306 66 337 0.0 0.0 0.00 0.00 0.00 75 1011.4
20260509141303 65 337 0.0 0.0 0.00 0.00 0.00 78 1011.2
20260509140303 64 337 0.0 0.0 0.00 0.00 0.00 80 1011.4
20260509135803 63 337 0.0 0.0 0.00 0.00 0.00 80 1011.4
20260509135306 63 337 0.0 0.0 0.00 0.00 0.00 81 1011.3
20260509133803 62 337 0.0 0.0 0.00 0.00 0.00 81 1011.3
20260509132306 61 337 0.0 2.0 0.00 0.00 0.00 83 1011.2
20260509130804 60 313 0.0 1.0 0.00 0.00 0.00 86 1011.2
20260509130304 59 334 0.0 1.0 0.00 0.00 0.00 88 1011.3
20260509125804 59 342 0.0 1.0 0.00 0.00 0.00 88 1011.4
20260509125307 58 342 0.0 1.0 0.00 0.00 0.00 89 1011.4
20260509124804 57 242 0.0 0.0 0.00 0.00 0.00 90 1011.4
20260509124303 57 242 0.0 0.0 0.00 0.00 0.00 90 1011.3
20260509123803 56 242 0.0 0.0 0.00 0.00 0.00 90 1011.4
20260509122804 55 242 0.0 0.0 0.00 0.00 0.00 91 1011.3
20260509121304 54 242 0.0 0.0 0.00 0.00 0.00 90 1011.3
20260509120803 54 242 0.0 0.0 0.00 0.00 0.00 90 1011.3
20260509115306 53 242 0.0 0.0 0.00 0.00 0.00 90 1011.1
20260509114804 53 242 0.0 0.0 0.00 0.00 0.00 90 1011.1
20260509113803 53 242 0.0 0.0 0.00 0.00 0.00 90 1011.0
20260509113303 53 242 0.0 0.0 0.00 0.00 0.00 89 1010.8
20260509112804 52 242 0.0 0.0 0.00 0.00 0.00 88 1010.8
20260509112306 52 242 0.0 0.0 0.00 0.00 0.00 88 1010.7
20260509105804 53 242 0.0 0.0 0.00 0.00 0.00 87 1010.5
20260509105306 53 242 0.0 0.0 0.00 0.00 0.00 86 1010.6
20260509104804 53 242 0.0 0.0 0.00 0.00 0.00 86 1010.7
20260509104304 53 242 0.0 0.0 0.00 0.00 0.00 85 1010.7
20260509101303 54 242 0.0 0.0 0.00 0.00 0.00 85 1011.0
20260509100804 54 242 0.0 0.0 0.00 0.00 0.00 84 1011.1
20260509100303 54 242 0.0 0.0 0.00 0.00 0.00 84 1011.1
20260509095803 54 242 0.0 0.0 0.00 0.00 0.00 84 1011.2
20260509094803 54 242 0.0 0.0 0.00 0.00 0.00 84 1011.2
20260509092803 54 242 0.0 0.0 0.00 0.00 0.00 85 1011.2
20260509092305 54 242 0.0 0.0 0.00 0.00 0.00 84 1011.2
20260509090803 54 242 0.0 0.0 0.00 0.00 0.00 84 1011.6
20260509084804 55 242 0.0 0.0 0.00 0.00 0.00 82 1011.5
20260509084304 55 242 0.0 0.0 0.00 0.00 0.00 83 1011.4
20260509083803 55 242 0.0 0.0 0.00 0.00 0.00 83 1011.1
20260509082803 55 242 0.0 0.0 0.00 0.00 0.00 83 1010.6
20260509082306 55 242 0.0 0.0 0.00 0.00 0.00 83 1010.7
20260509081303 55 242 0.0 0.0 0.00 0.00 0.00 83 1010.8
20260509075306 55 242 0.0 0.0 0.00 0.00 0.00 82 1010.8
20260509074803 55 242 0.0 0.0 0.00 0.00 0.00 82 1010.7
20260509073303 55 242 0.0 0.0 0.00 0.00 0.00 80 1010.8
20260509072804 55 242 0.0 0.0 0.00 0.00 0.00 80 1010.9
20260509071804 56 242 0.0 0.0 0.00 0.00 0.00 80 1011.0
20260509071303 56 242 0.0 0.0 0.00 0.00 0.00 80 1011.2
20260509070803 56 242 0.0 0.0 0.00 0.00 0.00 80 1011.2
20260509070304 56 242 0.0 0.0 0.00 0.00 0.00 80 1011.1
20260509065804 56 242 0.0 0.0 0.00 0.00 0.00 79 1011.2
20260509065306 56 242 0.0 0.0 0.00 0.00 0.00 79 1011.2
20260509064804 56 242 0.0 0.0 0.00 0.00 0.00 78 1011.4
20260509063804 56 242 0.0 0.0 0.00 0.00 0.00 78 1011.6
20260509062804 57 242 0.0 0.0 0.00 0.00 0.00 77 1011.4
20260509060304 57 242 0.0 0.0 0.00 0.00 0.00 75 1011.6
20260509055306 57 242 0.0 0.0 0.00 0.00 0.00 75 1011.5
20260509054303 58 242 0.0 0.0 0.00 0.00 0.00 75 1011.7
20260509053804 58 242 0.0 0.0 0.00 0.00 0.00 74 1011.8
20260509053304 58 242 0.0 0.0 0.00 0.00 0.00 74 1011.8
20260509052306 58 242 0.0 0.0 0.00 0.00 0.00 73 1011.9
20260509051804 58 242 0.0 0.0 0.00 0.00 0.00 73 1012.0
20260509051304 58 242 0.0 0.0 0.00 0.00 0.00 72 1011.9
20260509050304 59 242 0.0 0.0 0.00 0.00 0.00 72 1011.8
20260509045306 59 242 0.0 0.0 0.00 0.00 0.00 71 1011.8
20260509044803 59 242 0.0 0.0 0.00 0.00 0.00 71 1011.9
20260509044304 59 242 0.0 0.0 0.00 0.00 0.00 71 1012.1
20260509043303 60 242 0.0 0.0 0.00 0.00 0.00 70 1012.1
20260509042803 60 242 0.0 0.0 0.00 0.00 0.00 69 1012.2
20260509041804 60 242 0.0 0.0 0.00 0.00 0.00 68 1012.2
20260509041304 60 242 0.0 1.0 0.00 0.00 0.00 68 1012.2
20260509040804 60 242 0.0 1.0 0.00 0.00 0.00 68 1012.0
20260509035803 60 219 0.0 0.0 0.00 0.00 0.00 66 1012.1
20260509033303 61 219 0.0 0.0 0.00 0.00 0.00 63 1012.5
20260509032804 61 219 0.0 0.0 0.00 0.00 0.00 61 1012.4
20260509031803 62 219 0.0 0.0 0.00 0.00 0.00 60 1012.4
20260509031303 62 219 0.0 0.0 0.00 0.00 0.00 60 1012.3
20260509030804 62 219 0.0 0.0 0.00 0.00 0.00 60 1012.3
20260509030303 62 219 0.0 0.0 0.00 0.00 0.00 59 1012.3
20260509025306 62 219 0.0 0.0 0.00 0.00 0.00 58 1012.4
20260509024804 62 219 0.0 0.0 0.00 0.00 0.00 57 1012.3
20260509023804 63 219 0.0 0.0 0.00 0.00 0.00 57 1012.3
20260509022803 63 219 0.0 0.0 0.00 0.00 0.00 56 1012.3
20260509021803 63 219 0.0 0.0 0.00 0.00 0.00 56 1012.3
20260509021303 64 219 0.0 0.0 0.00 0.00 0.00 54 1012.3
20260509020803 64 219 0.0 0.0 0.00 0.00 0.00 53 1012.2
20260509015803 64 219 0.0 0.0 0.00 0.00 0.00 54 1012.2
20260509015306 64 219 0.0 0.0 0.00 0.00 0.00 53 1012.2
20260509014804 64 219 0.0 0.0 0.00 0.00 0.00 53 1012.1
20260509014303 65 219 0.0 0.0 0.00 0.00 0.00 52 1012.2
20260509013803 65 219 0.0 0.0 0.00 0.00 0.00 53 1012.2
20260509013304 65 219 0.0 0.0 0.00 0.00 0.00 52 1012.1
20260509012804 66 219 0.0 0.0 0.00 0.00 0.00 52 1012.0
20260509011804 66 219 0.0 0.0 0.00 0.00 0.00 53 1011.9
20260509011304 66 219 0.0 0.0 0.00 0.00 0.00 52 1011.9
20260509010804 67 219 0.0 0.0 0.00 0.00 0.00 51 1011.9
20260509010304 67 219 0.0 0.0 0.00 0.00 0.00 50 1011.9
20260509005804 68 219 0.0 0.0 0.00 0.00 0.00 50 1011.9
20260509005306 68 219 0.0 0.0 0.00 0.00 0.00 49 1011.9
20260509004304 68 219 0.0 0.0 0.00 0.00 0.00 48 1011.9
20260509002804 69 219 0.0 0.0 0.00 0.00 0.00 47 1012.0
20260509002306 70 219 0.0 0.0 0.00 0.00 0.00 44 1011.9
20260509000803 70 219 0.0 0.0 0.00 0.00 0.00 44 1011.9
20260509000304 71 219 0.0 0.0 0.00 0.00 0.00 43 1011.9